OBJECT C

Satellite information

Favourite Embed

Satellite Type and Status

UNKNOWNIN ORBIT

Key statistics

Satellite OBJECT C at a glance.

Uptime

19

Days in orbit

Revolutions

≈ 1.0

Per day

Orbit

OTHER

Other

Inclination

1.0

Latest

Satellite identification and parameters

Extended collection of information and parameters for OBJECT C.

Object identification

Identified? True

Debris? False

Object name: OBJECT C

International designator: 2025-131C

Object number (NORAD): 64527

Object ID (CCSDS): 64527

Country: COMMONWEALTH OF INDEPENDENT STATES (CIS)

Current information (Y/N): Y

Orbital parameters

Period: 1436.136 minutes

Inclination: 1.0317 deg

SMA: 42165.489 km

Apoapsis: 51291.675 km

Periapsis: 20283.032 km

RAAN: 280.6272 deg

Eccentricy: 0.3677017

Argument of periapsis: 174.0621 deg

Mean anomaly: 234.7879 deg

Mean motion: 1.00269086 rev/day

Mean motion (dot): -0.00000312 rev/day2

B* drag term: 0.0 1/REarth

Two-line elements (TLE)

Creation date: July 8, 2025, 2:27 a.m.

Reference frame: TEME

Reference center: EARTH

Epoch: July 7, 2025, 7:54 p.m. UTC

TLE line 0: 0 OBJECT C

TLE line 1: 1 64527U 25131C 25188.82954520 -.00000312 00000-0 00000-0 0 9992

TLE line 2: 2 64527 1.0317 280.6272 3677017 174.0621 234.7879 1.00269086 166

Live tracking on map

Real-time ground track for satellite OBJECT C.

In-orbit conjunctions

There are no conjunctions computed for OBJECT C, at the moment. Check back to stay up to date, as we update our databases every day.

Go to all conjunctions

Associated space launch

Unidentified payload for the Russian military.

OBJECT C was lifted into orbit during the mission ‘Angara A5/Briz-M | Kosmos 2589’, on board a Angara A5/Briz-M space rocket.

The launch took place on June 19, 2025, 3 a.m. from 35/1.

For more information about the launch, click the button.

Launch to space Angara A5/Briz-M | Kosmos 2589
Angara A5/Briz-M | Kosmos 2589

Agency: N/A

Status: Launch Successful

Launch date: June 19, 2025, 3 a.m. UTC

Rocket: Angara A5/Briz-M

Launch pad: 35/1

Location: Plesetsk Cosmodrome, Russian Federation

...

Latest news about this satellite

There are no fresh news available about this satellite. Check back as we update our databases every day.


Newsletter sign-up

Weekly statistics, charts and insights to help you stay on top of the space industry.